EW1425 Weather Reports


Display with metric or nautical units.
time (UTC)temp
F
wind
direction
speed
MPH
gust
MPH
rain 1hr
in
rain 24hr
in
rain mn
in
humidity
%
barometer
mb
20181212203121 35 334 1.0 6.0 0.00 0.00 0.00 47 1018.6
20181212201551 36 316 1.0 6.0 0.00 0.00 0.00 46 1018.3
20181212200014 36 342 3.0 8.0 0.00 0.00 0.00 44 1018.1
20181212194631 37 335 3.0 9.0 0.00 0.00 0.00 44 1017.7
20181212193038 37 338 2.0 7.0 0.00 0.00 0.00 44 1017.5
20181212191519 37 36 4.0 10.0 0.00 0.00 0.00 45 1017.4
20181212190158 37 329 1.0 6.0 0.00 0.00 0.00 46 1017.2
20181212184626 38 326 3.0 8.0 0.00 0.00 0.00 45 1017.0
20181212183108 37 315 3.0 9.0 0.00 0.00 0.00 48 1016.9
20181212181547 37 27 3.0 6.0 0.00 0.00 0.00 50 1016.9
20181212180006 37 336 2.0 7.0 0.00 0.00 0.00 50 1016.8
20181212174638 37 300 2.0 12.0 0.00 0.00 0.00 50 1016.8
20181212173103 37 356 1.0 6.0 0.00 0.00 0.00 52 1016.6
20181212171533 37 6 1.0 5.0 0.00 0.00 0.00 52 1016.7
20181212170144 36 326 3.0 9.0 0.00 0.00 0.00 53 1016.7
20181212164523 36 311 1.0 6.0 0.00 0.00 0.00 56 1016.6
20181212163133 35 349 1.0 8.0 0.00 0.00 0.00 57 1016.5
20181212161637 35 326 2.0 8.0 0.00 0.00 0.00 59 1016.5
20181212160043 34 311 2.0 6.0 0.00 0.00 0.00 61 1016.5
20181212154554 34 56 2.0 6.0 0.00 0.00 0.00 62 1016.5
20181212153107 33 358 2.0 6.0 0.00 0.00 0.00 63 1016.5
20181212151557 33 322 2.0 9.0 0.00 0.00 0.00 65 1016.6
20181212144630 32 339 1.0 4.0 0.00 0.00 0.00 66 1016.4
20181212143030 32 328 2.0 7.0 0.00 0.00 0.00 66 1016.3
20181212141559 31 320 1.0 4.0 0.00 0.00 0.00 67 1016.2
20181212140123 30 337 0.0 4.0 0.00 0.00 0.00 68 1016.1
20181212134535 29 316 1.0 4.0 0.00 0.00 0.00 68 1016.0
20181212133129 28 84 0.0 5.0 0.00 0.00 0.00 69 1015.9
20181212131546 28 321 0.0 3.0 0.00 0.00 0.00 71 1015.8
20181212130040 27 309 0.0 4.0 0.00 0.00 0.00 71 1015.5
20181212124534 27 324 0.0 4.0 0.00 0.00 0.00 71 1015.2
20181212123121 27 340 0.0 5.0 0.00 0.00 0.00 71 1015.0
20181212121645 27 321 1.0 4.0 0.00 0.00 0.00 72 1014.7
20181212120112 27 307 0.0 3.0 0.00 0.00 0.00 72 1014.5
20181212114536 27 316 1.0 4.0 0.00 0.00 0.00 71 1014.1
20181212113154 28 313 1.0 5.0 0.00 0.00 0.00 72 1013.8
20181212111607 28 13 0.0 3.0 0.00 0.00 0.00 72 1013.7
20181212110156 28 340 0.0 3.0 0.00 0.00 0.00 71 1013.5
20181212104634 28 333 1.0 3.0 0.00 0.00 0.00 70 1013.2
20181212103103 29 305 0.0 6.0 0.00 0.00 0.00 70 1013.1
20181212101528 29 330 0.0 3.0 0.00 0.00 0.00 70 1012.7
20181212100021 29 316 0.0 5.0 0.00 0.00 0.00 69 1012.5
20181212094504 30 330 0.0 3.0 0.00 0.00 0.00 68 1012.4
20181212093107 30 356 0.0 4.0 0.00 0.00 0.00 68 1012.2
20181212091515 30 316 1.0 4.0 0.00 0.00 0.00 67 1011.9
20181212090002 30 321 0.0 4.0 0.00 0.00 0.00 68 1011.8
20181212084656 31 320 0.0 5.0 0.00 0.00 0.00 69 1011.7
20181212083050 31 311 0.0 3.0 0.00 0.00 0.00 71 1011.4
20181212081557 31 344 0.0 4.0 0.00 0.00 0.00 74 1011.4
20181212080136 31 19 1.0 4.0 0.00 0.00 0.00 78 1011.3
20181212074537 30 328 0.0 3.0 0.00 0.00 0.00 85 1011.2
20181212073012 30 327 0.0 2.0 0.00 0.00 0.00 88 1011.2
20181212071745 30 320 0.0 2.0 0.00 0.00 0.00 88 1011.1
20181212070154 30 11 0.0 1.0 0.00 0.00 0.00 89 1011.1
20181212064627 30 80 0.0 2.0 0.00 0.00 0.00 90 1011.2
20181212063041 30 89 0.0 2.0 0.00 0.00 0.00 90 1011.2
20181212061636 30 39 0.0 1.0 0.00 0.00 0.00 90 1011.1
20181212060125 30 82 0.0 1.0 0.00 0.00 0.00 89 1011.5
20181212054735 31 352 0.0 1.0 0.00 0.00 0.00 88 1011.8
20181212053132 31 345 0.0 1.0 0.00 0.00 0.00 87 1011.7
20181212051516 31 304 0.0 2.0 0.00 0.00 0.00 86 1011.9
20181212050155 31 7 0.0 1.0 0.00 0.00 0.00 85 1011.8
20181212044630 31 318 0.0 0.0 0.00 0.00 0.00 84 1012.0
20181212043127 32 318 0.0 0.0 0.00 0.00 0.00 82 1012.2
20181212041600 32 318 0.0 1.0 0.00 0.00 0.00 81 1012.5
20181212040010 32 336 0.0 2.0 0.00 0.00 0.00 80 1012.6
20181212034713 32 336 0.0 1.0 0.00 0.00 0.00 78 1012.6
20181212033153 32 4 0.0 2.0 0.00 0.00 0.00 78 1012.7
20181212031605 33 329 0.0 2.0 0.00 0.00 0.00 80 1012.8
20181212030028 33 320 0.0 2.0 0.00 0.00 0.00 81 1013.0
20181212024511 32 135 0.0 0.0 0.00 0.00 0.00 82 1012.9
20181212023156 32 135 0.0 0.0 0.00 0.00 0.00 82 1013.1
20181212021615 32 135 0.0 0.0 0.00 0.00 0.00 82 1013.2
20181212020039 32 135 0.0 0.0 0.00 0.00 0.00 80 1013.5
20181212014556 33 135 0.0 1.0 0.00 0.00 0.00 79 1013.6
20181212011551 32 163 0.0 0.0 0.00 0.00 0.00 76 1014.4
20181212010031 32 163 0.0 0.0 0.00 0.00 0.00 76 1014.5
20181212003238 32 163 0.0 0.0 0.00 0.00 0.00 75 1014.4
20181212001632 32 163 0.0 0.0 0.00 0.00 0.00 76 1014.4
20181211234527 32 163 0.0 0.0 0.00 0.00 0.00 74 1014.5
20181211233125 33 163 0.0 0.0 0.00 0.00 0.00 74 1014.4
20181211231624 33 163 0.0 0.0 0.00 0.00 0.00 73 1014.8
20181211230024 33 163 0.0 0.0 0.00 0.00 0.00 73 1015.0
20181211224629 33 163 0.0 0.0 0.00 0.00 0.00 71 1015.2
20181211223231 33 232 0.0 0.0 0.00 0.00 0.00 70 1015.3
20181211221529 33 232 0.0 0.0 0.00 0.00 0.00 69 1015.1
20181211220252 34 232 0.0 0.0 0.00 0.00 0.00 67 1015.1
20181211214613 34 232 0.0 1.0 0.00 0.00 0.00 66 1015.1
20181211213154 35 231 0.0 1.0 0.00 0.00 0.00 64 1015.4
20181211211537 35 206 0.0 4.0 0.00 0.00 0.00 64 1015.8
20181211210012 35 173 0.0 3.0 0.00 0.00 0.00 64 1015.8
20181211204700 35 196 0.0 1.0 0.00 0.00 0.00 63 1016.0